This is the latest recevied weather packets stored in our database for station/object WA6OOO. If no packets are shown the sender has not sent any weather packets the latest 10 day(s).
| Time | Temp. | Humidity | Pressure | Rain* | Wind** | Luminosity | Snow |
|---|---|---|---|---|---|---|---|
| 1777951367 | 14.44° C | 74% | 1017.9 hPa | 0 mm | - | 0 W/m² | - |
| 1777951064 | 14.44° C | 74% | 1017.7 hPa | 0 mm | - | 0 W/m² | - |
| 1777950760 | 14.44° C | 73% | 1017.7 hPa | 0 mm | - | 0 W/m² | - |
| 1777950458 | 14.44° C | 73% | 1017.6 hPa | 0 mm | - | 0 W/m² | - |
| 1777950154 | 14.44° C | 72% | 1017.7 hPa | 0 mm | - | 0 W/m² | - |
| 1777949850 | 14.44° C | 72% | 1017.5 hPa | 0 mm | - | 0 W/m² | - |
| 1777949548 | 14.44° C | 72% | 1017.4 hPa | 0 mm | - | 1 W/m² | - |
| 1777949246 | 15° C | 73% | 1017.3 hPa | 0 mm | - | 2 W/m² | - |
| 1777948943 | 15° C | 73% | 1017.3 hPa | 0 mm | - | 3 W/m² | - |
| 1777948640 | 15° C | 73% | 1017.5 hPa | 0 mm | - | 6 W/m² | - |
| 1777948337 | 15° C | 73% | 1017.4 hPa | 0 mm | - | 9 W/m² | - |
| 1777948035 | 15° C | 73% | 1017.4 hPa | 0 mm | - | 12 W/m² | - |
| 1777947731 | 15° C | 73% | 1017.3 hPa | 0 mm | - | 15 W/m² | - |
| 1777947428 | 15° C | 75% | 1017.4 hPa | 0 mm | - | 19 W/m² | - |
| 1777947125 | 15° C | 76% | 1017.5 hPa | 0 mm | - | 23 W/m² | - |
| 1777946821 | 15° C | 77% | 1017.5 hPa | 0 mm | - | 29 W/m² | - |
| 1777946517 | 15° C | 76% | 1017.5 hPa | 0 mm | - | 37 W/m² | - |
| 1777946214 | 15° C | 77% | 1017.7 hPa | 0 mm | - | 42 W/m² | - |
| 1777945910 | 15° C | 77% | 1017.6 hPa | 0 mm | - | 48 W/m² | - |
| 1777945608 | 15° C | 76% | 1017.8 hPa | 0 mm | - | 52 W/m² | - |
| 1777945305 | 15° C | 76% | 1017.8 hPa | 0 mm | - | 61 W/m² | - |
| 1777945002 | 15.56° C | 76% | 1017.9 hPa | 0 mm | - | 66 W/m² | - |
| 1777944700 | 15.56° C | 74% | 1017.8 hPa | 0 mm | - | 69 W/m² | - |
| 1777944398 | 15.56° C | 75% | 1017.8 hPa | 0 mm | - | 65 W/m² | - |
| 1777944094 | 16.11° C | 73% | 1017.7 hPa | 0 mm | - | 53 W/m² | - |
* Rain latest hour (hover to see other rain measurements)
** Current wind speed in m/s (hover to see current wind gust speed)